Regional Weather Roundup
Issued by NWS

Home | Current Version | Previous Version | Text Only | Print | Product List | Glossary Off
Versions: 1 2 3 4 5 6 7 8 9 10 11 12 13 14 15 16 17 18 19 20 21 22 23 24 25 26 27 28 29 30 31 32 33 34 35 36 37 38 39 40 41 42 43 44 45 46 47 48 49 50

000
ASUS45 KTFX 231410
RWRMT
MONTANA REGIONAL WEATHER ROUNDUP
NATIONAL WEATHER SERVICE GREAT FALLS MT
700 AM MST THU NOV 23 2017

NOTE: "FAIR" INDICATES FEW OR NO CLOUDS BELOW 12000 FEET WITH NO
SIGNIFICANT WEATHER AND/OR OBSTRUCTIONS TO VISIBILITY.

MTZ001>007-043-231500-
WEST OF THE DIVIDE

CITY           SKY/WX    TMP DP  RH WIND       PRES   REMARKS
KALISPELL      LGT RAIN  53  47  79 S9        29.77F
MISSOULA       CLOUDY    40  39  97 NE3       29.93F
BUTTE          FAIR      32  29  88 CALM      30.05F
MULLAN PASS    RAIN      42  41  96 SW14G35   29.90F FOG
ANACONDA         N/A     48  36  61 S14G23    29.98F
DEER LODGE       N/A     48  37  66 S8        29.98F
EUREKA           N/A     55  46  71 MISG      29.71F
HAMILTON         N/A     54  37  54 SE5       29.97F
LIBBY            N/A     52  50  93 CALM      29.72F
RONAN            N/A     57  44  62 SE12      29.90F
$$

MTZ008-052>055-231500-
SOUTHWEST MONTANA

CITY           SKY/WX    TMP DP  RH WIND       PRES   REMARKS
BOZEMAN        FAIR      36  30  79 VRB6      30.02F WCI  31
DILLON         FAIR      41  33  73 E3        30.06F
W YELLOWSTONE  CLOUDY    41  37  87 E8        30.22F
ENNIS          CLEAR     52  34  50 S17G30    30.11F
$$

MTZ009-010-012-014-046-048-049-054-231500-
EAST SLOPES AND CENTRAL MONTANA

CITY           SKY/WX    TMP DP  RH WIND       PRES   REMARKS
CUT BANK       FAIR      53  42  66 W33G41    29.65F
GREAT FALLS    FAIR      58  36  43 SW24G32   29.78F
MALMSTROM AFB  FAIR      58  38  47 SW29      29.77F
HELENA         FAIR      38  36  92 W7        29.91F
BOWMANS CRNR   FAIR      55  38  52 SW22G35   29.82F
CHOTEAU          N/A     57  41  54 SW31G37   29.75F
FAIRFIELD      FAIR      56  39  52 SW30G39   29.76F
POWER          FAIR      57  39  50 SW30G44   29.74F
RAYNESFORD     FAIR      62  35  36 SW23G43   29.80F
ULM            FAIR      59  37  44 SW16G25   29.81F
$$

MTZ011-013-016-021-045-047-050-051-231500-
NORTH CENTRAL MONTANA

CITY           SKY/WX    TMP DP  RH WIND       PRES   REMARKS
HAVRE          FAIR      57  40  52 SW18      29.67F
LEWISTOWN      FAIR      55  36  48 SW22      29.84F
N BAR RANCH    FAIR      59  32  36 SW22      29.86F
CHINOOK          N/A     64  39  39 SW20G26   29.65F
DENTON         MOCLDY    57  38  48 SW17      29.76F
GEYSER         FAIR      57  36  45 W26G35    29.75F
GRASS RANGE    FAIR      57  35  44 W8        29.78F
STANFORD       FAIR      57  34  42 W7        29.83F
WINIFRED       FAIR      56  37  48 SW20G31   29.77F
$$

MTZ017>020-022>027-061-062-231500-
NORTHEAST MONTANA

CITY           SKY/WX    TMP DP  RH WIND       PRES   REMARKS
GLASGOW        FAIR      48  39  71 SW8       29.70F
GLENDIVE       FAIR      45  37  73 S9        29.79F
JORDAN           N/A     53  40  61 W12       29.78F
SIDNEY         FAIR      37  36  96 SE5       29.74F
WOLF POINT     FAIR      29  27  92 CALM      29.71F
MALTA          CLEAR     57  41  54 W9        29.70F
PLENTYWOOD       N/A     36  34  93 CALM      29.67F
POPLAR           N/A     36  34  93 SW3       29.72F
$$

MTZ028>42-056>058-231500-
SOUTHCENTRAL AND SOUTHEAST MONTANA

CITY           SKY/WX    TMP DP  RH WIND       PRES   REMARKS
BAKER          FAIR      44  37  76 W3        29.86F
BILLINGS       FAIR      53  38  56 SW18      29.91F
LIVINGSTON     FAIR      56  38  50 SW33G49   29.94F
MILES CITY     FAIR      43  37  79 S7        29.84F
BIG TIMBER     CLEAR     52  37  58 W17       29.94F
FORSYTH          N/A     54  37  54 CALM      29.84F
HARLOWTON      FAIR      49  36  60 W14G21    29.89F
LAUREL           N/A     52  37  58 SW13G20   29.93F
ROUNDUP          N/A     48  35  60 W2        29.80F
$$

REGIONAL REPORTS...DAKOTAS

CITY           SKY/WX    TMP DP  RH WIND       PRES   REMARKS
WILLISTON      FAIR      31  29  92 S3        29.72F
MINOT          FAIR      37  33  85 SW15      29.69F WCI  28
DICKINSON      FAIR      45  39  79 W10       29.79F
BEACH          FAIR      48  39  71 W16       29.84F
CROSBY         FAIR      36  36 100 SW16G22   29.66F WCI  26
TIOGA          FAIR      34  34 100 SW12      29.71F WCI  25
WATFORD CITY   FAIR      39  37  93 W8        29.72F
BISMARCK       FAIR      28  24  85 CALM      29.81F
GRAND FORKS    CLOUDY    30  29  96 SW9       29.87S WCI  22
FARGO          CLOUDY    28  25  88 S6        29.91F WCI  22
RAPID CITY     FAIR      41  33  73 SE3       29.96S
$$

REGIONAL REPORTS...WYOMING/IDAHO/WASHINGTON

CITY           SKY/WX    TMP DP  RH WIND       PRES   REMARKS
GILLETTE       FAIR      50  36  58 SW18      29.99F
SHERIDAN       FAIR      47  36  65 CALM      29.96S
BUFFALO WY     FAIR      50  29  44 W7        30.01F
CODY           FAIR      55  35  47 SW7       30.07F
YELLOWSTONE LA   N/A     33  33 100 CALM      30.28F
IDAHO FALLS    FOG       34  34 100 N6        30.22F VSB 1/4 WCI  29
SALMON         FOG       37  37 100 N3        30.13F VSB 1/2
BOISE          FAIR      47  45  93 SW3       30.09F
SPOKANE        MOCLDY    54  50  86 SW20      29.82S
$$

REGIONAL REPORTS...ALBERTA

CITY           SKY/WX    TMP DP  RH WIND       PRES   REMARKS
EDMONTON       CLEAR     21  14  73 NW8G20    29.35R WCI  12
CALGARY        PTCLDY    50  37  62 SW8       29.42F
LETHBRIDGE     PTCLDY    55  43  62 SW28G40   29.52F
MEDICINE HAT   PTCLDY    52  41  66 S18       29.48F
$$

REGIONAL REPORTS...SASKATCHEWAN

CITY           SKY/WX    TMP DP  RH WIND       PRES   REMARKS
SWIFT CURRENT  CLEAR     43  36  75 SW21G29   29.51F
REGINA         PTCLDY    19  18  93 SE10      29.57F WCI   8
SASKATOON      MOCLDY    18  16  93 SE12      29.48F WCI   5
$$



USA.gov is the U.S. government's official web portal to all federal, state and local government web resources and services.